Weather History for Dayton, OH

Change the Weather History Date:

Sunday, April 7, 2013

  Actual Average Record
Temperature  
Mean Temperature 64 °F 49 °F  
Max Temperature 74 °F 59 °F 85 °F (2001)
Min Temperature 54 °F 39 °F 17 °F (1982)
Degree Days  
Heating Degree Days 1 17  
Month to date heating degree days 149 124  
Since 1 July heating degree days 5111 5163  
Cooling Degree Days 0 0  
Month to date cooling degree days 0 0  
Year to date cooling degree days 0 0  
Growing Degree Days 14 (Base 50)    
Moisture  
Dew Point 39 °F    
Average Humidity 47    
Maximum Humidity 66    
Minimum Humidity 28    
Precipitation  
Precipitation T in 0.13 in 2.23 in (2000)
Month to date precipitation T 0.89  
Year to date precipitation 7.55 9.18  
Snow  
Snow 0.00 in 0.00 in 1.80 in (1985)
Month to date snowfall 0.0 0.3  
Since 1 July snowfall 35.9 23.0  
Snow Depth 0.00 in    
Sea Level Pressure  
Sea Level Pressure 29.91 in    
Wind  
Wind Speed 14 mph (SW)    
Max Wind Speed 26 mph    
Max Gust Speed 35 mph    
Visibility 10 miles    
Events      
T = Trace of Precipitation, MM = Missing Value Source: NWS Daily Summary

Daily Weather History Graph

Daily Weather History Graph

Search for Another Location

Airport:

Trip Planner

Search our weather history database for the weather conditions in past years. The results will help you decide how hot, cold, wet, or windy it might be!

Date:

Astronomy

Apr. 07, 2013 Rise Set
Actual Time 7:11 AM EDT 8:07 PM EDT
Civil Twilight 6:43 AM EDT 8:35 PM EDT
Nautical Twilight 6:10 AM EDT 9:07 PM EDT
Astronomical Twilight 5:36 AM EDT 9:41 PM EDT
Moon 5:27 AM EDT (4/7) 5:38 PM EDT (4/7)
Length of Visible Light 13h 51m
Length of Day
12h 56m
Waning Crescent, 8% of the Moon is Illuminated
Apr 7
Waning Crescent
Apr 10
New
Apr 18
First Quarter
Apr 25
Full
May 2
Last Quarter

Hourly Weather History & Observations

Time (EDT) Temp. Dew Point Humidity Pressure Visibility Wind Dir Wind Speed Gust Speed Precip Events Conditions
12:56 AM 61.0 °F 34.0 °F 36% 29.88 in 10.0 mi South 15.0 mph - N/A   Overcast
1:56 AM 60.1 °F 35.1 °F 39% 29.86 in 10.0 mi South 15.0 mph 24.2 mph N/A   Mostly Cloudy
2:56 AM 59.0 °F 35.1 °F 41% 29.85 in 10.0 mi SSW 13.8 mph 24.2 mph N/A   Mostly Cloudy
3:56 AM 60.1 °F 35.1 °F 39% 29.82 in 10.0 mi SSW 18.4 mph 25.3 mph N/A   Scattered Clouds
4:56 AM 59.0 °F 36.0 °F 42% 29.82 in 10.0 mi SSW 19.6 mph - N/A   Scattered Clouds
5:56 AM 57.0 °F 36.0 °F 45% 29.83 in 10.0 mi SSW 15.0 mph 21.9 mph N/A   Scattered Clouds
6:56 AM 57.0 °F 37.0 °F 47% 29.85 in 10.0 mi SSW 15.0 mph 23.0 mph N/A   Mostly Cloudy
7:56 AM 54.0 °F 43.0 °F 66% 29.88 in 10.0 mi SW 13.8 mph - 0.00 in   Overcast
8:56 AM 57.0 °F 41.0 °F 55% 29.89 in 10.0 mi SW 15.0 mph - N/A   Overcast
9:56 AM 63.0 °F 42.1 °F 46% 29.89 in 10.0 mi SW 16.1 mph 24.2 mph N/A   Mostly Cloudy
10:56 AM 63.0 °F 43.0 °F 48% 29.90 in 10.0 mi WSW 23.0 mph 27.6 mph N/A   Mostly Cloudy
11:56 AM 66.9 °F 44.1 °F 44% 29.91 in 10.0 mi WSW 21.9 mph - N/A   Mostly Cloudy
12:56 PM 69.1 °F 44.1 °F 40% 29.91 in 10.0 mi WSW 23.0 mph 28.8 mph N/A   Scattered Clouds
1:56 PM 71.1 °F 43.0 °F 36% 29.91 in 10.0 mi WSW 18.4 mph 27.6 mph N/A   Scattered Clouds
2:56 PM 72.0 °F 42.1 °F 34% 29.91 in 10.0 mi WSW 16.1 mph 31.1 mph N/A   Scattered Clouds
3:56 PM 71.1 °F 39.9 °F 32% 29.92 in 10.0 mi West 18.4 mph 24.2 mph N/A   Mostly Cloudy
4:56 PM 71.1 °F 39.9 °F 32% 29.93 in 10.0 mi West 18.4 mph - N/A   Mostly Cloudy
5:56 PM 70.0 °F 37.9 °F 31% 29.94 in 10.0 mi West 17.3 mph 20.7 mph N/A   Mostly Cloudy
6:56 PM 70.0 °F 36.0 °F 29% 29.95 in 10.0 mi NW 11.5 mph - N/A   Mostly Cloudy
7:56 PM 64.9 °F 35.1 °F 33% 29.96 in 10.0 mi WNW 5.8 mph - N/A   Mostly Cloudy
8:56 PM 60.1 °F 35.1 °F 39% 29.96 in 10.0 mi North 3.5 mph - N/A   Mostly Cloudy
9:56 PM 57.0 °F 36.0 °F 45% 29.98 in 10.0 mi NE 3.5 mph - N/A   Mostly Cloudy
10:56 PM 59.0 °F 37.9 °F 46% 29.99 in 10.0 mi South 8.1 mph - N/A   Overcast
11:56 PM 59.0 °F 37.0 °F 44% 29.99 in 10.0 mi SE 4.6 mph - N/A   Overcast